Wind_Speed
10 11 12 12 12 12 13 13 13 14 14 14 15 15 15 15 14 14 14 14 15 15 16 16 16 16 16 15 15 14 14 14 13 12 12 11 10 9 8 7 7 7 7
8 9 9 10 10 11 11 12 12 13 13 13 14 14 14 14 14 13 13 13 13 14 14 15 15 16 15 15 15 14 14 13 12 12 11 11 10 10 9 7 6 6 6
6 7 7 8 9 9 9 10 10 11 11 12 12 12 13 13 13 13 13 13 13 13 13 14 14 15 15 15 14 14 13 13 12 11 11 10 10 9 8 7 6 5 4
4 5 6 7 7 8 8 8 9 9 9 10 11 11 12 13 13 13 12 12 12 12 12 12 13 14 15 15 14 13 13 12 12 11 10 9 9 8 7 6 5 4 3
4 5 6 7 7 7 8 8 8 8 8 8 9 10 11 12 12 13 12 12 11 11 11 12 12 13 14 14 14 13 12 12 11 11 11 10 8 8 7 5 4 3 2
6 7 7 8 8 8 9 9 9 8 8 8 9 10 10 11 12 12 12 12 12 11 11 11 12 12 13 13 13 13 12 11 11 10 10 10 9 8 6 5 4 3 3
7 8 8 9 9 10 10 11 11 11 11 11 11 11 11 12 12 12 12 12 12 12 12 12 12 12 12 12 13 12 12 11 11 10 10 10 9 7 6 6 5 4 3
9 10 10 10 11 11 12 12 12 12 12 12 12 12 12 13 13 13 13 13 13 12 12 12 12 12 12 12 12 12 12 11 11 11 11 10 9 8 7 7 6 5 4
10 11 11 11 11 11 12 12 12 12 12 12 13 13 13 13 14 13 13 13 13 13 13 13 13 13 13 13 13 12 12 12 11 11 11 11 10 9 8 7 7 7 6
11 12 12 12 11 11 12 12 12 12 12 13 13 13 14 14 14 14 14 14 14 14 14 14 14 15 15 14 14 13 13 13 12 12 12 11 11 11 9 9 8 8 8
11 12 12 11 11 11 11 11 12 13 13 13 14 14 14 14 15 15 15 15 16 16 16 16 16 16 16 16 16 16 15 14 14 14 14 13 12 12 11 10 10 9 10
12 12 12 12 12 12 13 13 14 14 15 15 15 15 16 16 16 17 16 16 16 17 17 18 18 18 18 18 18 18 18 17 17 16 16 16 15 14 13 12 12 11 11
13 14 15 15 15 15 16 17 17 18 18 18 18 18 18 19 19 20 19 19 19 19 19 19 20 20 21 21 20 20 20 20 19 19 19 18 18 17 16 15 14 13 12
17 17 18 20 21 21 21 23 23 22 22 22 22 22 22 22 22 22 23 23 23 23 23 23 23 23 23 23 23 23 23 23 22 22 22 21 20 20 19 18 16 15 14
23 23 24 25 26 27 27 27 27 27 27 27 27 27 27 27 26 26 25 26 27 27 27 26 26 26 26 26 26 26 26 25 25 24 24 24 24 23 22 21 19 18 17
27 28 29 30 31 33 33 33 32 31 31 30 30 30 30 31 31 31 30 30 30 30 30 30 29 29 28 28 28 28 28 27 28 27 27 27 27 26 24 23 22 21 20
31 33 34 35 36 37 38 38 37 36 35 34 33 33 33 34 34 35 35 34 33 33 33 32 32 31 30 30 30 31 30 29 29 29 28 28 28 27 26 25 25 24 22
36 37 38 39 39 40 41 40 41 40 38 37 37 37 36 36 37 37 37 37 36 35 35 34 34 33 32 31 31 31 31 32 31 31 30 29 29 28 27 27 27 27 25
38 38 39 40 40 40 39 41 42 41 40 40 40 39 38 38 38 38 38 38 38 37 36 35 35 34 33 32 32 31 31 32 32 31 30 29 29 29 28 28 27 27 27
37 38 38 40 40 39 37 38 39 39 39 40 40 40 40 40 39 38 39 38 38 39 37 37 36 35 34 33 32 31 30 31 30 31 29 29 29 29 29 30 29 28 28
36 37 39 40 40 40 39 38 38 37 38 39 40 40 40 40 40 39 39 38 39 39 39 38 37 36 34 33 34 32 31 31 30 30 30 29 29 28 29 30 30 30 28
36 39 40 42 42 41 40 41 40 40 39 38 39 39 40 41 41 42 42 41 40 41 41 40 38 37 36 35 35 34 32 31 31 30 30 30 30 29 29 29 29 30 29
38 40 40 41 41 41 41 41 40 40 39 38 38 39 40 41 42 43 42 42 42 43 43 41 40 39 37 36 35 35 33 31 32 31 31 31 30 30 30 29 27 28 29
38 38 38 39 39 39 40 40 40 40 39 38 38 38 39 40 41 41 42 42 43 43 43 42 42 40 38 37 37 36 35 34 33 32 32 32 32 31 32 30 29 29 30
35 35 35 36 37 38 38 39 39 39 39 38 38 38 38 39 40 41 42 43 43 43 43 43 43 42 41 39 38 37 36 35 34 33 32 32 32 30 30 31 30 29 29
34 34 34 35 36 37 38 38 39 39 39 39 39 39 39 39 40 41 42 42 43 43 43 44 44 44 44 42 40 39 38 37 36 34 33 32 30 29 30 30 29 29 30
Wind_Direction
68 62 59 55 51 50 50 48 43 37 33 29 26 23 22 20 19 19 21 22 23 24 25 26 26 27 28 28 29 31 33 35 38 41 46 50 53 58 66 75 84 95 101
62 56 55 52 49 47 47 47 43 37 32 27 23 20 18 16 15 14 14 15 16 18 20 21 22 22 23 24 26 27 28 27 27 31 36 41 45 50 54 60 73 86 95
52 44 45 44 42 41 41 40 38 35 31 26 21 17 13 11 10 9 8 8 9 10 13 14 16 17 18 19 21 23 24 23 19 19 24 30 34 39 44 46 55 71 86
32 24 24 26 28 29 29 29 29 28 25 21 17 12 8 6 4 3 1 2 3 3 4 6 8 11 13 15 16 17 19 19 15 11 12 18 20 25 31 33 37 51 69
0 -0 1 5 8 9 9 9 9 9 9 8 6 3 1 359 357 356 354 353 354 354 355 356 359 2 5 7 10 11 13 15 13 6 3 6 5 9 14 12 16 28 39
341 341 345 347 349 348 348 347 345 344 344 344 344 345 346 347 346 346 345 344 343 344 345 346 348 351 355 358 2 5 5 7 9 5 358 358 354 350 352 348 345 355 2
329 330 331 332 333 333 332 330 329 327 324 324 327 330 332 334 335 335 335 333 332 333 335 337 338 340 343 347 350 355 358 356 358 359 354 351 346 336 334 331 323 325 324
317 317 318 319 320 321 322 321 320 319 317 316 319 322 324 325 326 326 326 326 326 326 326 328 330 332 333 334 338 342 347 348 348 347 348 348 345 332 327 323 315 308 304
303 305 307 309 312 313 314 314 314 314 314 314 314 316 319 320 320 320 320 319 318 319 319 320 322 323 324 326 327 330 333 336 337 338 338 340 341 335 325 318 309 301 291
295 297 299 301 304 306 306 306 308 309 310 309 309 311 314 315 315 315 316 314 312 313 314 314 316 317 318 319 319 319 320 321 322 323 325 328 331 330 326 317 309 298 290
293 294 294 294 296 298 299 300 302 303 304 303 303 304 307 308 309 308 309 309 308 308 309 309 310 311 311 312 311 310 308 310 310 310 312 314 317 319 318 314 309 299 289
295 296 295 294 294 294 294 294 295 297 297 297 297 298 300 300 301 301 300 300 300 301 303 304 304 305 304 304 304 303 301 300 300 300 300 301 304 308 309 306 303 297 289
296 297 296 295 293 291 291 290 291 291 291 292 293 293 294 294 295 295 295 294 294 295 296 298 300 300 299 298 297 297 295 293 292 292 292 294 297 297 296 296 295 292 288
293 293 294 293 292 290 289 289 289 289 289 289 290 290 290 290 290 290 291 291 292 292 292 292 293 295 295 293 292 292 291 290 286 286 286 286 288 286 286 285 285 285 284
289 288 288 288 287 286 285 285 286 287 288 288 288 288 288 287 286 285 285 286 286 287 287 287 288 289 291 289 289 289 289 287 285 283 281 279 279 277 276 275 277 279 278
287 286 285 284 283 282 281 279 279 280 280 282 284 285 285 286 285 284 282 280 280 281 281 282 283 285 287 287 287 287 285 283 281 282 279 276 274 271 269 269 270 272 274
287 286 285 284 283 281 280 278 276 275 275 277 278 279 280 280 281 281 280 279 278 278 279 280 280 281 282 283 284 284 282 280 280 279 276 272 271 269 266 265 265 267 268
290 288 287 284 282 280 281 279 277 277 277 277 276 276 276 276 276 277 278 278 277 277 277 278 278 279 280 281 281 282 280 279 280 278 276 272 269 267 264 263 263 264 264
294 291 288 285 282 281 279 278 276 278 279 279 278 277 276 276 276 276 277 276 276 276 276 276 277 277 278 279 279 279 280 279 279 278 277 273 269 266 263 262 262 261 261
297 294 291 288 286 284 282 280 279 278 278 278 279 279 278 279 278 278 278 277 276 275 275 275 277 279 279 278 278 279 280 280 277 276 275 273 267 265 262 260 260 261 259
299 298 296 293 290 287 285 284 282 281 280 279 279 279 279 279 280 280 281 279 279 279 278 277 278 278 279 279 279 280 279 278 276 274 272 270 267 265 263 259 258 256 256
297 298 296 294 292 290 288 286 284 283 280 278 278 278 278 278 278 279 280 280 280 282 282 281 277 276 279 280 281 279 277 276 274 273 271 269 267 266 264 260 259 254 252
296 296 295 293 292 291 291 289 287 285 283 281 279 278 277 277 277 278 279 280 280 281 282 282 281 282 280 281 282 281 278 274 270 271 271 269 267 265 262 260 257 253 252
296 295 294 294 294 293 292 290 290 289 287 285 283 281 279 279 278 279 280 280 280 280 282 282 283 281 281 280 280 281 280 276 274 271 270 269 267 263 260 255 257 256 253
297 295 294 294 294 294 293 292 291 290 289 287 286 284 282 281 280 280 280 280 280 280 280 280 281 280 279 278 278 278 278 276 275 273 270 268 265 261 257 255 256 255 250
301 300 298 297 296 295 294 293 292 290 289 288 287 286 284 283 282 282 281 281 281 281 280 280 279 278 277 277 274 274 275 276 276 274 271 267 262 258 256 255 254 254 249
Height
5933 5931 5931 5931 5930 5930 5929 5928 5928 5927 5926 5926 5924 5923 5922 5920 5919 5917 5916 5914 5913 5911 5910 5908 5906 5905 5903 5902 5900 5899 5897 5896 5895 5893 5892 5891 5890 5889 5888 5887 5886 5886 5886
5934 5933 5933 5933 5932 5932 5931 5930 5929 5929 5928 5927 5926 5924 5923 5921 5920 5918 5917 5915 5914 5912 5911 5909 5908 5906 5904 5903 5901 5900 5898 5897 5896 5894 5893 5892 5891 5890 5889 5888 5887 5887 5886
5936 5935 5935 5935 5934 5933 5933 5932 5931 5930 5929 5928 5927 5925 5924 5922 5921 5919 5918 5916 5915 5913 5912 5910 5908 5907 5905 5903 5902 5900 5899 5897 5896 5895 5893 5892 5891 5890 5890 5889 5888 5887 5887
5937 5937 5937 5936 5936 5935 5934 5933 5932 5931 5930 5929 5927 5926 5925 5923 5922 5920 5918 5917 5915 5914 5912 5911 5909 5907 5906 5904 5902 5901 5900 5898 5896 5895 5894 5893 5892 5891 5890 5889 5889 5888 5887
5938 5938 5938 5937 5937 5936 5935 5934 5933 5932 5930 5929 5928 5926 5925 5924 5922 5921 5919 5917 5916 5914 5913 5911 5909 5908 5906 5904 5903 5901 5900 5898 5897 5895 5894 5893 5892 5891 5890 5889 5889 5888 5887
5939 5939 5938 5938 5937 5937 5936 5935 5933 5932 5931 5929 5928 5927 5925 5924 5922 5921 5919 5918 5916 5914 5913 5911 5910 5908 5906 5905 5903 5902 5900 5899 5897 5896 5894 5892 5892 5891 5890 5889 5889 5888 5887
5938 5938 5938 5937 5937 5936 5935 5934 5933 5932 5930 5929 5928 5926 5925 5923 5922 5921 5919 5917 5916 5914 5913 5911 5910 5908 5906 5905 5903 5902 5900 5899 5897 5896 5894 5893 5891 5890 5889 5888 5888 5887 5886
5937 5937 5937 5936 5936 5935 5934 5933 5932 5931 5929 5928 5927 5925 5924 5923 5921 5920 5918 5917 5915 5913 5912 5910 5909 5907 5906 5904 5903 5902 5900 5898 5897 5896 5894 5893 5891 5889 5888 5887 5887 5886 5885
5936 5936 5935 5935 5934 5933 5932 5931 5930 5929 5928 5926 5925 5924 5922 5921 5920 5918 5917 5915 5913 5912 5910 5909 5907 5906 5904 5903 5902 5901 5899 5898 5896 5895 5893 5892 5891 5889 5887 5886 5885 5885 5884
5934 5934 5933 5933 5932 5931 5930 5929 5928 5927 5926 5924 5923 5922 5920 5919 5917 5916 5914 5913 5911 5910 5908 5907 5905 5904 5902 5901 5900 5899 5897 5896 5895 5894 5892 5891 5890 5888 5887 5885 5884 5883 5882
5933 5932 5931 5931 5930 5929 5928 5926 5925 5924 5923 5922 5920 5919 5918 5916 5915 5913 5912 5910 5909 5907 5906 5904 5903 5901 5900 5899 5897 5896 5895 5894 5893 5891 5890 5889 5888 5887 5885 5884 5883 5882 5881
5931 5930 5929 5928 5927 5926 5925 5924 5922 5921 5920 5918 5917 5916 5914 5913 5911 5910 5908 5907 5905 5904 5902 5901 5899 5898 5897 5895 5894 5893 5892 5890 5889 5888 5887 5886 5885 5884 5883 5882 5881 5880 5879
5930 5928 5927 5926 5925 5923 5922 5920 5919 5917 5916 5915 5913 5912 5910 5909 5907 5905 5904 5903 5901 5900 5898 5897 5895 5894 5893 5891 5890 5889 5887 5886 5885 5885 5884 5883 5882 5881 5880 5880 5879 5878 5876
5928 5926 5924 5922 5921 5920 5918 5916 5914 5913 5911 5910 5909 5907 5905 5904 5903 5901 5899 5897 5895 5894 5893 5892 5891 5889 5888 5887 5885 5884 5883 5881 5880 5880 5879 5878 5877 5877 5877 5876 5875 5875 5873
5923 5923 5921 5919 5916 5914 5913 5911 5908 5907 5905 5904 5903 5901 5899 5898 5896 5895 5894 5892 5890 5888 5887 5886 5884 5883 5882 5881 5879 5878 5877 5876 5874 5874 5873 5872 5872 5872 5871 5871 5871 5870 5869
5917 5916 5915 5913 5911 5908 5906 5904 5902 5900 5899 5897 5895 5894 5892 5890 5888 5887 5887 5885 5884 5882 5880 5879 5878 5876 5875 5874 5873 5872 5871 5869 5868 5867 5867 5866 5866 5865 5865 5865 5865 5865 5865
5909 5907 5906 5904 5902 5899 5896 5893 5891 5891 5891 5890 5889 5887 5885 5883 5880 5878 5877 5877 5876 5874 5873 5871 5870 5869 5868 5866 5865 5864 5863 5862 5861 5860 5859 5859 5858 5858 5858 5858 5858 5859 5859
5900 5898 5896 5894 5891 5888 5885 5882 5880 5878 5879 5879 5879 5878 5876 5875 5872 5870 5868 5866 5865 5864 5863 5862 5861 5860 5859 5858 5857 5855 5854 5853 5853 5852 5851 5851 5850 5850 5851 5851 5851 5852 5852
5891 5888 5885 5883 5879 5876 5873 5872 5868 5866 5866 5867 5866 5866 5865 5864 5862 5860 5858 5856 5854 5853 5852 5851 5851 5850 5849 5849 5847 5846 5845 5844 5843 5843 5842 5842 5842 5842 5842 5843 5844 5844 5845
5882 5879 5875 5872 5868 5865 5861 5861 5859 5857 5857 5856 5855 5854 5853 5852 5851 5850 5848 5846 5844 5842 5841 5840 5840 5840 5839 5839 5838 5837 5836 5835 5835 5834 5834 5834 5834 5834 5834 5835 5836 5837 5838
5875 5871 5867 5864 5859 5857 5855 5852 5851 5849 5849 5847 5846 5845 5844 5842 5841 5840 5838 5836 5834 5832 5831 5830 5830 5830 5830 5829 5828 5828 5827 5827 5826 5826 5826 5826 5826 5826 5826 5827 5827 5829 5830
5869 5865 5860 5856 5851 5848 5845 5843 5842 5841 5840 5839 5838 5836 5835 5833 5831 5829 5828 5826 5824 5823 5822 5820 5819 5819 5820 5820 5819 5818 5819 5820 5818 5817 5817 5817 5817 5817 5818 5819 5819 5821 5823
5862 5858 5853 5848 5844 5839 5836 5834 5832 5830 5829 5829 5828 5826 5824 5822 5820 5819 5817 5816 5815 5813 5812 5811 5810 5809 5809 5810 5809 5809 5809 5810 5810 5809 5808 5808 5808 5809 5810 5810 5811 5812 5814
5855 5850 5845 5840 5836 5832 5828 5825 5823 5821 5820 5818 5817 5815 5814 5812 5810 5809 5807 5806 5804 5803 5802 5801 5800 5800 5799 5800 5800 5799 5799 5800 5800 5800 5800 5799 5799 5800 5801 5802 5803 5805 5806
5847 5842 5837 5833 5828 5824 5820 5817 5814 5812 5810 5808 5807 5805 5804 5802 5800 5799 5797 5796 5794 5793 5792 5791 5790 5789 5789 5790 5790 5789 5789 5789 5789 5789 5790 5791 5791 5791 5792 5793 5795 5796 5798
5837 5833 5828 5824 5820 5817 5813 5809 5806 5803 5801 5799 5797 5795 5793 5792 5790 5788 5786 5785 5783 5782 5781 5779 5779 5778 5778 5779 5779 5779 5779 5779 5780 5780 5781 5781 5782 5783 5784 5785 5787 5788 5789